St. Cloud, MN

4:22 AM CDT on May 28, 2017 (GMT -0500)
Saint Cloud Regional

Weather History for KSTC - February, 2013

Change the Weather History Date:

Sunday, February 17, 2013

  Actual Average Record
Temperature  
Mean Temperature 15 °F 18 °F  
Max Temperature 30 °F 27 °F 59 °F (2017)
Min Temperature -1 °F 8 °F -28 °F (1903)
Degree Days  
Heating Degree Days 50 47  
Month to date heating degree days 869 848  
Since 1 July heating degree days 5739 5950  
Cooling Degree Days 0 0  
Month to date cooling degree days 0 0  
Year to date cooling degree days 0 0  
Moisture  
Dew Point 12 °F    
Average Humidity 76    
Maximum Humidity 88    
Minimum Humidity 63    
Precipitation  
Precipitation 0.00 in 0.02 in 0.44 in (2014)
Month to date precipitation 1.21 0.30  
Year to date precipitation 1.66 0.95  
Snow  
Snow 0.00 in 0.20 in 4.30 in (2014)
Month to date snowfall 15.2 3.9  
Since 1 July snowfall 35.9 31.1  
Snow Depth 13.00 in    
Sea Level Pressure  
Sea Level Pressure 29.91 in    
Wind  
Wind Speed 11 mph (SE)    
Max Wind Speed 24 mph    
Max Gust Speed 29 mph    
Visibility 10 miles    
Events      
T = Trace of Precipitation, MM = Missing Value Source: NWS Daily Summary

Daily Weather History Graph

Daily Weather History Graph

Search for Another Location

Airport or City:

Trip Planner

Search our weather history database for the weather conditions in past years. The results will help you decide how hot, cold, wet, or windy it might be!

Date:

Astronomy

Feb. 17, 2013 Rise Set
Actual Time 7:14 AM CST 5:46 PM CST
Civil Twilight 6:44 AM CST 6:16 PM CST
Nautical Twilight 6:09 AM CST 6:51 PM CST
Astronomical Twilight 5:35 AM CST 7:25 PM CST
Moon 10:44 AM CST (2/17) 1:05 AM CST (2/17)
Length of Visible Light 11h 32m
Length of Day
10h 32m
Waxing Crescent, 49% of the Moon is Illuminated
Feb 17
Waxing Crescent
Feb 17
First Quarter
Feb 25
Full
Mar 4
Last Quarter
Mar 11
New

Hourly Weather History & Observations

Time (CST) Temp. Windchill Dew Point Humidity Pressure Visibility Wind Dir Wind Speed Gust Speed Precip Events Conditions
12:53 AM 7.0 °F 0.1 °F 1.9 °F 80% 30.15 in 9.0 mi SE 3.5 mph - N/A   Overcast
1:53 AM 3.9 °F -3.4 °F -0.0 °F 84% 30.16 in 8.0 mi SE 3.5 mph - N/A   Mostly Cloudy
2:53 AM 8.1 °F -0.5 °F 3.0 °F 80% 30.14 in 9.0 mi ESE 4.6 mph - N/A   Overcast
3:53 AM 8.1 °F -2.0 °F 3.0 °F 80% 30.11 in 10.0 mi ESE 5.8 mph - N/A   Partly Cloudy
4:53 AM 8.1 °F -2.0 °F 1.9 °F 76% 30.09 in 10.0 mi ESE 5.8 mph - N/A   Clear
5:53 AM 8.1 °F -4.3 °F 1.9 °F 76% 30.07 in 10.0 mi SE 8.1 mph - N/A   Clear
6:53 AM 6.8 °F -5.9 °F 3.2 °F 85% 29.95 in 10.0 mi SE 8.1 mph - N/A   Clear
7:53 AM 5.0 °F -5.6 °F 1.0 °F 84% 30.04 in 8.0 mi SE 5.8 mph - N/A   Clear
8:29 AM 10.4 °F -2.4 °F 5.0 °F 79% 29.93 in 9.0 mi SE 9.2 mph - N/A   Mostly Cloudy
8:53 AM 10.9 °F -3.4 °F 6.1 °F 81% 30.01 in 10.0 mi SE 11.5 mph - N/A   Overcast
9:04 AM 10.4 °F -4.1 °F 6.8 °F 85% 29.91 in 10.0 mi SE 11.5 mph - N/A   Scattered Clouds
9:53 AM 15.1 °F 0.5 °F 9.0 °F 77% 29.99 in 10.0 mi SSE 13.8 mph - N/A   Mostly Cloudy
10:53 AM 19.9 °F 6.2 °F 12.9 °F 74% 29.96 in 10.0 mi SE 15.0 mph - N/A   Scattered Clouds
11:53 AM 24.1 °F 12.0 °F 16.0 °F 71% 29.94 in 10.0 mi SSE 13.8 mph - N/A   Clear
12:53 PM 26.1 °F 14.0 °F 17.1 °F 69% 29.89 in 10.0 mi SSE 15.0 mph - N/A   Clear
1:53 PM 28.9 °F 17.3 °F 19.0 °F 67% 29.85 in 10.0 mi SSE 16.1 mph 28.8 mph N/A   Clear
2:53 PM 30.0 °F 17.2 °F 19.9 °F 66% 29.81 in 10.0 mi SSE 20.7 mph - N/A   Clear
3:53 PM 30.0 °F 17.9 °F 19.9 °F 66% 29.78 in 10.0 mi SE 18.4 mph - N/A   Clear
4:53 PM 30.0 °F 19.1 °F 19.9 °F 66% 29.76 in 10.0 mi SE 15.0 mph - N/A   Clear
5:53 PM 28.9 °F 17.7 °F 19.9 °F 69% 29.75 in 10.0 mi SE 15.0 mph 23.0 mph N/A   Clear
6:53 PM 27.0 °F 16.1 °F 19.0 °F 72% 29.75 in 10.0 mi SE 12.7 mph - N/A   Clear
7:53 PM 28.0 °F 17.5 °F 19.9 °F 72% 29.74 in 10.0 mi SE 12.7 mph - N/A   Clear
8:53 PM 28.0 °F 18.1 °F 19.9 °F 72% 29.72 in 10.0 mi SE 11.5 mph - N/A   Clear
9:53 PM 28.0 °F 17.0 °F 21.0 °F 75% 29.70 in 10.0 mi SE 13.8 mph - N/A   Clear
11:53 PM 28.0 °F 18.1 °F 21.0 °F 75% 29.64 in 10.0 mi SE 11.5 mph - N/A   Clear